Showing default

EUTE 1-F5 (ECS 5), 19331

Orbit data source: Space-Track

EUTE 1-F5 (ECS 5), 19331 is a payload satellite owned by Eutelsat (FR) in GEO that was launched on Thu, 21 Jul 1988 UTC via an ARIANE 3 launch vehicle from the French Guiana (FRGUI). Payload-class satellites include a variety of spacecraft equipped with specific instruments for various scientific and technological missions. These include communications satellites like Starlink; space stations such as the ISS; scientific satellites like the Hubble; Earth observation satellites from companies like Planet Labs, Umbra, and HawkEye 360; GPS; miniature CubeSats for education and research; and military/defense satellites.

Not visible in the next 10 days
Identifier
19331, 1988-063B
Orbit
GEO
Country
Flag of FRFR / EUTE
Related business
Manufacturer
BAe
Mission
Non-operational Civil Communications
Bus & Motor
ECS, MAGE 2
Mass
1,175 kg wet, 540 kg dry
Launch date (UTC)
1988-07-21 (38 years ago)
Launch vehicle
ARIANE 3
Launch site
French Guiana (FRGUI)
Object type
Payload
Rocket body
Debris
Shape & HBR
Box + 2 Pan, 6.9 m
Radar Cross Section
14.457 m², Large (>1 m²)

Expand to show TLE details & history
Last TLE update: 2 days ago

TLE from 2 days ago
0 EUTE 1-F5 (ECS 5)
1 19331U 88063B   26171.41308541 -.00000103  00000-0  00000+0 0  9999
2 19331  14.5509 345.9445 0010814 159.4900  18.4661  0.98164765114377
Epoch: 2026-06-20T09:54Z
TLE epoch observation values (Epoch: 2026-06-20T09:54:50.579Z)
Latitude
0.49923°
Longitude
106.68061°
Altitude
36,343.59 km
Speed
3.056 km/s
True Right ascension
10h 56m 04s
True Declination
0° 29' 55"
Sunlit
Object was in daylight at epoch
Visualization orbit readout
Latitude
Unknown
Longitude
Unknown
Altitude
Unknown
Speed
Unknown
Apparent Right ascension
Unknown
Apparent Declination
Unknown
Sunlit
N/A
Visualization observer readout
Local Sidereal Time
23:08:04
Azimuth
Unknown
Elevation
Unknown
Doppler factor
Unknown
Orbital elements
Apogee altitude
36,435.016 km
Perigee altitude
36,342.52 km
Semi-major axis
42,766.905 km
Eccentricity
0.00108
Inclination
14.5509°
RAAN
345.9445°
Arg. of periapsis
159.49°
True anomaly
18.5054°
Mean anomaly
18.4661°
Eccentric anomaly
18.48575°
Mean motion
0.2454 °/min
Orbital period
1,466.97 mins
BSTAR
0
Loading maneuver chart data...
Computing Atmospheric mass density...
Loading historical data...
Loading historical data...
Loading historical data...
Loading historical data...
Loading historical data...
Loading historical data...
Loading historical data...

Documentation

Showing up to 5 results
|